SCP
0 0 0 0 0 0 0 0 0 0 0 0 0 0 0 0 0 0 0 0 0 0 0 0 0 0 0 0 0 0 0 0 0 0 0 0 0 0
0 0 0 0 0 0 0 0 0 0 0 0 0 0 0 0 0 0 0 0 0 0 0 0 0 0 0 0 0 0 0 0 0 0 0 0 0 0
0 0 0 0 0 0 0 0 0 0 0 0 0 0 0 0 0 0 0 0 0 0 0 0 0 0 0 0 0 0 0 0 0 0 0 0 0 0
0 0 0 0 0 0 0 0 0 0 0 0 0 0 0 0 0 0 0 0 0 0 0 0 0 0 0 0 0 0 0 0 0 0 0 0 0 0
0 0 0 0 0 0 0 0 0 0 0 0 0 0 0 0 0 0 0 0 0 0 0 0 0 0 0 0 0 0 0 0 0 0 0 0 0 0
0 0 0 0 0 0 0 0 0 0 0 0 0 0 0 0 0 0 0 0 0 0 0 0 0 0 0 0 0 0 0 0 0 0 0 0 0 0
0 0 0 0 0 0 0 0 0 0 0 0 0 0 0 0 0 0 0 0 0 0 0 0 0 0 0 0 0 0 0 0 0 0 0 0 0 0
0 0 0 0 0 0 0 0 0 0 0 0 0 0 0 0 0 0 0 0 0 0 0 0 0 0 0 0 0 0 0 0 0 0 0 0 0 0
0 0 0 0 0 0 0 0 0 0 0 0 0 0 0 0 0 0 0 0 0 0 0 0 0 0 0 0 0 0 0 0 0 0 0 0 0 0
0 0 0 0 0 0 0 0 0 0 0 0 0 0 0 0 0 0 0 0 0 0 0 0 0 0 0 0 0 0 0 0 0 0 0 0 0 0
0 0 0 0 0 0 0 0 0 0 0 0 0 0 0 0 0 0 0 0 0 0 0 0 0 0 0 0 0 0 0 0 0 0 0 0 0 0
0 0 0 0 0 0 0 0 0 0 0 0 0 0 0 0 0 0 0 0 0 0 0 0 0 0 0 0 0 0 0 0 0 0 0 0 0 0
0 0 0 0 0 0 0 0 0 0 0 0 0 0 0 0 0 0 0 0 0 0 0 0 0 0 0 0 0 0 0 0 0 0 0 0 0 0
0 0 0 0 0 0 0 0 0 0 0 0 0 0 0 0 0 0 0 0 0 0 0 0 0 0 0 0 0 0 0 0 0 0 0 0 0 0
0 0 0 0 0 0 0 0 0 0 0 0 0 0 0 0 0 0 0 0 0 0 0 0 0 0 0 0 0 0 0 0 0 0 0 0 0 0
0 0 0 0 0 0 0 0 0 0 0 0 0 0 0 0 0 0 0 0 0 0 0 0 0 0 0 0 0 0 0 0 0 0 0 0 0 0
0 0 0 0 0 0 0 0 0 0 0 0 0 0 0 0 0 0 0 0 0 0 0 0 0 0 0 0 0 0 0 0 0 0 0 0 0 0
0 0 0 0 0 0 0 0 0 0 0 0 0 0 0 0 0 0 0 0 0 0 0 0 0 0 0 0 0 0 0 0 0 0 0 0 0 0
0 0 0 0 0 0 0 0 0 0 0 0 0 0 0 0 0 0 0 0 0 0 0 0 0 0 0 0 0 0 0 0 0 0 0 0 0 0
0 0 0 0 0 0 0 0 0 0 0 0 0 0 0 0 0 0 0 0 0 0 0 0 0 0 0 0 0 0 0 0 0 0 0 0 0 0
0 0 0 0 0 0 0 0 0 0 0 0 0 0 0 0 0 0 0 0 0 0 0 0 0 0 0 0 0 0 0 0 0 0 0 0 0 0
0 0 0 0 0 0 0 0 0 0 0 0 0 0 0 0 0 0 0 0 0 0 0 0 0 0 0 0 0 0 0 0 0 0 0 0 0 0
0 0 0 0 0 0 0 0 0 0 0 0 0 0 0 0 0 0 0 0 0 0 0 0 0 0 0 0 0 0 0 0 0 0 0 0 0 0
Wind_Speed
7 7 6 5 5 5 4 5 4 4 5 4 3 3 4 5 7 6 7 9 10 11 11 11 11 11 11 11 11 11 10 10 10 10 10 10 10 10
6 7 7 5 5 5 5 5 5 5 5 3 3 3 3 4 5 6 7 8 9 10 10 10 11 11 11 11 11 11 11 11 11 10 10 10 10 10
7 8 9 7 6 5 5 5 5 5 6 4 3 3 3 4 4 4 5 5 5 9 10 10 10 10 10 11 11 11 11 11 11 11 10 10 10 10
8 8 8 6 7 6 5 6 5 6 6 6 4 3 4 4 3 4 4 4 5 6 8 9 10 10 10 10 10 10 10 10 10 10 10 10 10 10
7 7 7 6 7 5 6 5 5 5 5 5 5 3 3 2 2 3 3 3 4 4 6 8 8 9 9 9 9 9 10 10 10 10 10 9 9 9
5 6 6 6 7 6 6 6 5 4 4 5 5 4 3 2 2 3 3 2 3 3 4 4 5 7 7 8 8 9 9 10 10 10 9 9 9 9
4 4 4 5 6 5 4 4 4 4 4 4 4 3 3 2 3 3 3 3 3 2 2 2 2 3 4 6 7 8 8 9 9 9 9 9 9 9
3 2 2 3 3 4 4 4 4 4 4 4 4 4 4 4 3 3 3 2 3 2 2 3 2 3 3 3 5 7 8 9 9 9 9 9 9 9
1 1 1 1 1 1 1 1 2 3 5 5 4 5 4 4 3 4 4 3 4 1 2 3 2 3 3 3 5 6 6 7 7 8 8 8 8 8
1 1 0 1 1 1 0 1 1 2 2 3 3 4 3 3 3 3 3 3 2 1 2 3 2 2 2 2 3 4 5 5 6 6 6 7 7 8
3 3 3 2 3 2 2 1 1 2 2 1 0 1 2 2 1 1 1 1 2 1 1 2 1 2 2 2 2 2 4 4 5 5 5 6 6 6
3 4 6 5 5 5 3 2 2 2 2 3 3 3 3 3 2 1 2 2 2 1 0 1 1 1 2 1 2 2 2 2 3 4 5 5 4 3
3 3 4 7 7 7 5 4 2 2 2 2 3 3 3 3 3 2 1 1 2 1 0 1 1 1 2 2 2 2 2 2 2 2 3 3 4 3
3 3 4 7 8 7 5 5 5 4 3 3 4 4 4 4 3 3 2 1 1 1 1 1 1 1 2 3 2 2 2 2 2 2 2 1 2 4
4 7 7 8 7 6 8 8 6 4 4 4 4 3 3 3 3 3 3 2 2 2 3 2 2 2 3 3 3 2 2 2 2 2 2 2 2 2
5 7 9 9 8 8 8 7 6 5 4 4 3 3 3 3 4 3 3 3 2 3 3 3 3 2 2 3 3 3 2 2 2 2 2 2 2 2
5 6 6 6 7 6 6 6 5 5 5 4 4 4 4 4 4 4 3 3 2 3 4 4 3 2 2 2 2 2 2 2 3 2 2 3 3 2
7 7 6 6 6 5 5 5 5 5 5 4 4 4 4 4 4 4 4 3 3 4 4 4 4 3 2 1 1 2 3 3 3 3 3 3 3 3
8 7 6 6 5 5 5 5 5 5 4 4 5 5 4 4 4 4 4 4 4 4 4 4 4 3 4 4 3 3 3 4 4 3 3 3 4 3
6 6 5 5 5 4 4 4 4 4 5 5 5 5 4 4 4 4 4 4 4 4 4 4 4 4 3 4 3 4 4 4 3 4 4 3 3 3
5 5 5 4 4 4 4 4 4 4 5 4 4 5 4 4 4 4 4 5 4 4 5 5 5 6 3 2 2 3 4 5 4 3 4 3 3 3
5 5 4 4 4 4 4 4 4 4 5 4 4 4 4 4 4 4 4 4 4 4 4 4 5 4 3 3 4 4 5 5 5 4 4 4 3 3
4 4 4 4 4 4 4 4 5 4 4 4 4 4 4 4 4 3 4 4 4 4 4 4 4 4 4 3 4 4 5 5 4 4 4 5 4 3
Wind_Direction
223 220 221 223 215 214 205 195 200 237 258 251 251 245 231 230 232 225 226 225 222 224 226 228 230 229 229 230 230 232 234 235 235 236 237 239 241 244
221 223 226 223 219 214 211 210 207 215 245 246 239 250 245 247 231 227 233 228 225 223 224 227 229 228 228 228 228 229 230 230 231 233 234 235 238 241
226 225 230 222 217 215 209 209 214 210 236 257 241 250 245 252 248 229 232 230 231 223 223 224 227 228 228 229 228 228 228 229 230 231 233 234 235 237
228 226 231 225 220 216 210 215 216 212 222 248 252 241 243 244 240 236 236 230 231 226 222 225 224 224 226 228 227 227 228 230 231 231 232 233 234 234
229 226 229 221 225 222 216 219 220 218 218 235 252 242 246 245 237 243 237 237 235 230 224 225 224 223 224 226 226 226 226 227 228 229 230 232 234 235
236 232 230 223 226 224 222 220 217 217 218 232 247 248 244 235 217 232 246 232 243 247 237 228 223 221 224 227 229 229 229 228 228 229 231 233 234 236
242 241 240 230 225 221 221 217 211 214 220 231 243 246 242 221 224 219 237 245 244 229 233 233 219 225 226 229 231 230 228 226 226 226 228 229 231 234
241 249 249 241 231 220 220 218 210 215 228 234 242 245 253 240 232 221 227 230 247 213 213 238 210 235 240 232 231 226 224 224 224 225 228 229 230 232
248 255 255 288 263 231 225 235 241 244 233 230 241 248 253 250 234 232 222 221 235 218 197 244 226 242 251 250 235 231 228 226 226 227 228 229 230 233
35 12 13 357 357 355 57 62 352 312 264 233 234 251 255 257 236 234 233 227 233 228 196 241 243 251 267 262 251 240 239 233 230 229 230 233 235 237
46 43 42 35 25 51 82 62 15 2 27 48 1 315 338 336 277 205 215 222 254 248 190 232 256 261 264 262 269 253 243 240 242 241 239 238 238 240
52 47 47 45 40 50 65 67 28 354 4 14 20 12 4 9 31 219 231 233 245 259 206 215 249 252 278 275 283 288 273 267 261 257 252 244 231 228
59 49 43 48 52 50 53 52 27 5 26 36 29 26 27 19 10 2 333 239 232 243 264 205 233 226 234 271 291 304 308 309 299 281 266 251 234 221
67 59 57 59 57 51 50 46 41 43 46 45 42 30 21 13 6 3 3 4 329 294 317 261 245 238 243 257 273 303 315 310 297 294 301 276 249 240
70 67 62 60 57 52 46 45 45 47 49 46 36 21 5 358 -0 360 3 9 17 8 1 343 305 273 250 249 262 269 288 297 291 294 293 286 274 270
68 62 61 60 60 52 43 41 42 42 44 39 25 14 9 17 19 10 6 4 9 2 2 356 334 305 273 269 264 275 281 283 300 299 294 288 279 262
76 64 54 48 47 44 41 38 35 35 35 27 24 21 19 21 18 11 11 9 9 353 351 354 352 344 321 299 297 306 307 304 299 298 289 288 287 282
71 63 55 50 46 40 37 33 30 28 24 23 24 21 19 17 14 12 13 14 5 354 350 346 347 350 347 358 326 302 311 313 313 305 296 289 292 305
64 60 53 46 42 38 35 32 27 21 21 27 27 21 16 16 17 16 13 10 5 356 350 348 351 349 339 334 347 349 324 323 321 317 313 305 301 310
57 58 52 45 40 36 31 28 25 22 22 22 21 17 13 13 13 12 11 7 1 357 356 0 360 350 332 320 319 326 330 315 315 319 323 322 317 311
53 51 47 43 39 35 29 26 26 24 20 18 16 13 9 10 11 8 7 7 6 4 1 355 340 328 313 311 316 327 338 340 322 308 315 318 319 314
54 51 44 41 37 33 29 26 29 28 20 16 9 6 3 5 7 7 5 1 359 355 347 338 337 342 345 338 332 330 336 344 349 343 320 303 305 306
50 47 41 35 31 26 25 28 29 23 16 6 359 358 359 358 353 355 355 353 349 348 346 343 347 349 344 337 335 335 339 342 341 346 353 353 337 321